EN

Hourly Weather Godzieszow

Today, 18 May, Tuesday

Time Temperature Precipitation Wind Pressure Humidity
00:00 +8°C° 0 mm 3 mps 734 mmHg 94%
01:00 +8°C° 0 mm 3 mps 734 mmHg 94%
02:00 +7°C° 0 mm 3 mps 734 mmHg 95%
03:00 +7°C° 0 mm 3 mps 734 mmHg 95%
04:00 +6°C° 0 mm 4 mps 734 mmHg 96%
05:00 +7°C° 0 mm 4 mps 735 mmHg 95%
06:00 +7°C° 0 mm 4 mps 735 mmHg 94%
07:00 +8°C° 0 mm 4 mps 735 mmHg 94%
08:00 +8°C° 0.1 mm 4 mps 736 mmHg 93%
09:00 +8°C° 0.1 mm 5 mps 736 mmHg 92%
10:00 +9°C° 0.1 mm 5 mps 737 mmHg 91%
11:00 +9°C° 0.1 mm 5 mps 737 mmHg 89%
12:00 +9°C° 0.1 mm 5 mps 737 mmHg 88%
13:00 +9°C° 0.1 mm 5 mps 737 mmHg 86%
14:00 +12°C° 0.1 mm 5 mps 737 mmHg 77%
15:00 +13°C° 0.1 mm 5 mps 737 mmHg 69%
16:00 +14°C° 0.1 mm 5 mps 737 mmHg 61%
17:00 +13°C° 0.2 mm 4 mps 737 mmHg 68%
18:00 +12°C° 0.2 mm 4 mps 737 mmHg 76%
19:00 +11°C° 0.2 mm 3 mps 737 mmHg 83%
20:00 +9°C° 0 mm 3 mps 737 mmHg 87%
21:00 +8°C° 0 mm 3 mps 738 mmHg 91%
22:00 +7°C° 0 mm 3 mps 738 mmHg 95%
23:00 +7°C° 0 mm 3 mps 738 mmHg 95%

Tomorrow, 19 May, Wednesday

Time Temperature Precipitation Wind Pressure Humidity
00:00 +7°C° 0 mm 3 mps 738 mmHg 96%
01:00 +7°C° 0 mm 3 mps 738 mmHg 96%
02:00 +7°C° 0 mm 3 mps 738 mmHg 95%
03:00 +7°C° 0 mm 3 mps 738 mmHg 94%
04:00 +5°C° 0 mm 3 mps 738 mmHg 92%
05:00 +7°C° 0 mm 3 mps 738 mmHg 91%
06:00 +8°C° 0 mm 3 mps 738 mmHg 90%
07:00 +8°C° 0 mm 3 mps 739 mmHg 88%
08:00 +9°C° 0.2 mm 3 mps 739 mmHg 86%
09:00 +10°C° 0.2 mm 3 mps 739 mmHg 85%
10:00 +10°C° 0.2 mm 3 mps 739 mmHg 83%
11:00 +10°C° 0.4 mm 3 mps 739 mmHg 83%
12:00 +10°C° 0.4 mm 4 mps 739 mmHg 83%
13:00 +10°C° 0.4 mm 4 mps 739 mmHg 83%
14:00 +11°C° 0.1 mm 4 mps 739 mmHg 79%
15:00 +12°C° 0.1 mm 4 mps 739 mmHg 75%
16:00 +12°C° 0.1 mm 3 mps 739 mmHg 70%
17:00 +11°C° 0.3 mm 3 mps 739 mmHg 76%
18:00 +12°C° 0.3 mm 2 mps 739 mmHg 82%
19:00 +10°C° 0.3 mm 2 mps 739 mmHg 88%
20:00 +9°C° 0 mm 2 mps 739 mmHg 90%
21:00 +8°C° 0 mm 2 mps 740 mmHg 91%
22:00 +7°C° 0 mm 2 mps 740 mmHg 93%
23:00 +6°C° 0 mm 2 mps 740 mmHg 93%

Day after tomorrow, 20 May, Thursday

Time Temperature Precipitation Wind Pressure Humidity
00:00 +6°C° 0 mm 2 mps 740 mmHg 93%
01:00 +6°C° 0 mm 2 mps 740 mmHg 94%
02:00 +5°C° 0 mm 2 mps 740 mmHg 94%
03:00 +5°C° 0 mm 2 mps 740 mmHg 94%
04:00 +5°C° 0 mm 2 mps 741 mmHg 94%
05:00 +7°C° 0 mm 2 mps 741 mmHg 91%
06:00 +8°C° 0 mm 3 mps 741 mmHg 89%
07:00 +9°C° 0 mm 3 mps 741 mmHg 86%
08:00 +10°C° 0.2 mm 4 mps 742 mmHg 83%
09:00 +11°C° 0.2 mm 4 mps 742 mmHg 80%
10:00 +12°C° 0.2 mm 4 mps 742 mmHg 76%
11:00 +12°C° 0.2 mm 4 mps 742 mmHg 76%
12:00 +12°C° 0.2 mm 4 mps 742 mmHg 75%
13:00 +12°C° 0.2 mm 4 mps 742 mmHg 75%
14:00 +12°C° 0.2 mm 4 mps 742 mmHg 74%
15:00 +13°C° 0.2 mm 4 mps 742 mmHg 73%
16:00 +13°C° 0.2 mm 4 mps 743 mmHg 72%
17:00 +12°C° 0.1 mm 3 mps 743 mmHg 74%
18:00 +12°C° 0.1 mm 2 mps 743 mmHg 77%
19:00 +12°C° 0.1 mm 2 mps 743 mmHg 79%
20:00 +9°C° 0 mm 2 mps 743 mmHg 82%
21:00 +8°C° 0 mm 2 mps 743 mmHg 85%
22:00 +7°C° 0 mm 2 mps 743 mmHg 88%
23:00 +6°C° 0 mm 2 mps 743 mmHg 88%

21 May, Friday

Time Temperature Precipitation Wind Pressure Humidity
00:00 +6°C° 0 mm 2 mps 743 mmHg 89%
01:00 +6°C° 0 mm 2 mps 743 mmHg 89%
02:00 +5°C° 0 mm 3 mps 742 mmHg 88%
03:00 +5°C° 0 mm 3 mps 742 mmHg 88%
04:00 +5°C° 0 mm 3 mps 742 mmHg 87%
05:00 +7°C° 0 mm 3 mps 742 mmHg 83%
06:00 +9°C° 0 mm 3 mps 741 mmHg 79%
07:00 +11°C° 0 mm 3 mps 741 mmHg 75%
08:00 +12°C° 0 mm 4 mps 741 mmHg 69%
09:00 +13°C° 0 mm 5 mps 740 mmHg 63%
10:00 +15°C° 0 mm 5 mps 740 mmHg 57%
11:00 +15°C° 0 mm 5 mps 739 mmHg 54%
12:00 +16°C° 0 mm 6 mps 739 mmHg 50%
13:00 +17°C° 0 mm 6 mps 738 mmHg 47%
14:00 +17°C° 0 mm 5 mps 738 mmHg 51%
15:00 +16°C° 0 mm 5 mps 737 mmHg 56%
16:00 +16°C° 0 mm 5 mps 737 mmHg 60%
17:00 +15°C° 0.1 mm 4 mps 736 mmHg 65%
18:00 +14°C° 0.1 mm 3 mps 736 mmHg 70%
19:00 +12°C° 0.1 mm 3 mps 736 mmHg 75%
20:00 +13°C° 0 mm 2 mps 735 mmHg 74%
21:00 +13°C° 0 mm 2 mps 735 mmHg 73%
22:00 +13°C° 0 mm 2 mps 734 mmHg 73%
23:00 +13°C° 0 mm 2 mps 734 mmHg 73%

22 May, Saturday

Time Temperature Precipitation Wind Pressure Humidity
00:00 +12°C° 0 mm 3 mps 734 mmHg 74%
01:00 +11°C° 0 mm 4 mps 733 mmHg 75%
02:00 +11°C° 0 mm 3 mps 733 mmHg 77%
03:00 +11°C° 0 mm 3 mps 732 mmHg 80%
04:00 +10°C° 0 mm 3 mps 731 mmHg 82%
05:00 +10°C° 0.2 mm 3 mps 732 mmHg 84%
06:00 +11°C° 0.2 mm 3 mps 732 mmHg 85%
07:00 +11°C° 0.2 mm 3 mps 733 mmHg 87%
08:00 +13°C° 0.2 mm 2 mps 733 mmHg 87%
09:00 +13°C° 0.2 mm 2 mps 733 mmHg 87%
10:00 +13°C° 0.2 mm 2 mps 733 mmHg 87%
11:00 +13°C° 0.5 mm 2 mps 733 mmHg 87%
12:00 +12°C° 0.5 mm 3 mps 733 mmHg 86%
13:00 +12°C° 0.5 mm 4 mps 733 mmHg 86%
14:00 +12°C° 0.2 mm 4 mps 733 mmHg 80%
15:00 +13°C° 0.2 mm 5 mps 733 mmHg 73%
16:00 +14°C° 0.2 mm 5 mps 733 mmHg 67%
17:00 +13°C° 0 mm 5 mps 734 mmHg 69%
18:00 +12°C° 0 mm 4 mps 734 mmHg 71%
19:00 +11°C° 0 mm 4 mps 734 mmHg 73%
20:00 +10°C° 0 mm 4 mps 734 mmHg 74%
21:00 +10°C° 0 mm 4 mps 735 mmHg 75%
22:00 +8°C° 0 mm 4 mps 735 mmHg 76%
23:00 +8°C° 0 mm 4 mps 735 mmHg 78%

23 May, Sunday

Time Temperature Precipitation Wind Pressure Humidity
00:00 +7°C° 0 mm 4 mps 735 mmHg 79%
01:00 +7°C° 0 mm 4 mps 735 mmHg 81%
02:00 +7°C° 0 mm 4 mps 735 mmHg 80%
03:00 +7°C° 0 mm 4 mps 735 mmHg 79%
04:00 +7°C° 0 mm 4 mps 736 mmHg 78%
05:00 +8°C° 0 mm 5 mps 736 mmHg 77%
06:00 +9°C° 0 mm 5 mps 736 mmHg 76%
07:00 +10°C° 0 mm 6 mps 737 mmHg 74%
08:00 +11°C° 0 mm 6 mps 737 mmHg 67%
09:00 +12°C° 0 mm 7 mps 737 mmHg 59%
10:00 +14°C° 0 mm 7 mps 737 mmHg 51%
11:00 +14°C° 0.1 mm 7 mps 738 mmHg 53%
12:00 +14°C° 0.1 mm 7 mps 738 mmHg 54%
13:00 +14°C° 0.1 mm 7 mps 738 mmHg 55%
14:00 +14°C° 0.1 mm 6 mps 738 mmHg 54%
15:00 +14°C° 0.1 mm 6 mps 738 mmHg 54%
16:00 +14°C° 0.1 mm 6 mps 739 mmHg 53%
17:00 +13°C° 0 mm 5 mps 739 mmHg 58%
18:00 +12°C° 0 mm 4 mps 739 mmHg 63%
19:00 +11°C° 0 mm 3 mps 739 mmHg 67%
20:00 +10°C° 0 mm 3 mps 740 mmHg 70%
21:00 +8°C° 0 mm 2 mps 740 mmHg 73%
22:00 +7°C° 0 mm 2 mps 740 mmHg 76%
23:00 +7°C° 0 mm 2 mps 740 mmHg 76%
Show more